Probability
0 0 0 0 0 0 0 0 0 0 0 0 0 0 0 0 0 0 0 0 0 0 0 0 0 0 0 1 2 2 2 1 0 0 0 0 0 0 0 0 0 0 0 0 0 0 0 0 0
0 0 0 0 0 0 0 0 0 0 0 0 0 0 0 0 0 0 0 0 0 0 0 0 0 0 0 0 1 1 1 0 0 0 0 0 0 0 0 0 0 0 0 0 0 0 0 0 0
0 0 0 0 0 0 0 0 0 0 0 0 0 0 0 0 0 0 0 1 1 1 0 1 1 1 0 0 0 0 0 0 0 0 0 0 0 0 0 0 0 0 0 0 0 0 0 0 0
0 0 0 0 0 0 0 0 0 0 0 0 0 0 0 0 0 1 2 3 3 1 0 1 2 2 1 0 1 1 1 0 0 0 0 0 0 0 0 0 0 0 0 0 0 0 0 0 0
0 0 0 0 0 0 0 0 0 0 0 0 0 0 0 0 1 3 5 6 5 3 1 1 3 2 1 0 1 2 1 0 0 0 0 0 0 0 0 0 0 0 0 0 0 0 0 0 0
0 0 0 0 0 0 0 0 0 1 1 1 1 1 0 0 2 6 7 7 5 3 1 2 3 2 1 1 2 2 1 0 0 0 0 0 0 0 0 0 0 0 0 0 0 0 0 0 0
0 0 0 0 0 0 1 1 1 2 3 3 3 2 1 2 4 6 7 6 3 1 1 2 2 1 1 2 2 2 1 0 0 0 0 0 0 0 0 0 0 0 0 0 0 0 0 0 0
0 0 0 0 0 1 2 2 2 4 6 5 4 3 4 6 8 8 8 6 3 0 0 1 1 1 1 2 2 2 1 0 0 0 0 0 0 0 0 0 0 0 0 0 0 0 0 0 0
0 0 0 0 0 1 2 3 4 7 10 8 5 6 10 14 15 13 10 7 3 1 0 0 1 2 2 3 3 2 1 0 0 0 0 0 0 0 0 0 0 0 0 0 0 0 0 0 0
0 0 0 0 0 1 3 4 6 10 13 11 11 15 21 23 21 16 11 6 3 2 1 1 2 2 2 3 3 1 1 0 1 1 1 1 1 0 0 0 0 0 0 0 0 0 0 0 0
0 0 0 0 0 1 3 6 8 10 11 13 19 27 31 28 22 15 9 4 2 2 3 3 3 3 2 3 2 1 1 1 2 2 2 2 1 0 0 0 0 0 0 0 0 0 0 0 0
0 0 0 0 0 1 4 7 9 9 8 13 24 34 35 28 20 14 8 3 1 2 3 4 5 5 4 3 3 3 2 3 3 3 3 3 2 0 0 0 0 0 0 0 0 0 0 0 0
0 0 0 0 0 3 6 8 8 8 9 16 27 34 33 27 18 13 9 5 4 3 2 4 7 7 6 4 3 3 3 3 3 3 3 3 2 1 0 0 0 0 0 0 0 0 0 0 0
0 0 0 0 0 3 6 6 6 8 11 18 26 29 27 24 20 15 11 9 7 6 3 3 6 6 6 4 2 2 3 3 3 3 3 2 2 1 0 0 0 0 0 0 0 0 0 0 0
0 0 0 0 0 1 3 3 3 8 12 16 21 23 21 21 20 16 14 12 9 7 5 3 4 5 5 4 1 1 1 2 2 2 1 1 1 0 0 0 0 0 0 0 0 0 0 0 0
0 0 0 0 0 0 1 1 3 7 11 14 18 20 20 19 17 15 14 13 11 9 7 5 5 4 3 2 0 0 0 1 1 1 0 0 0 0 0 0 0 0 0 0 0 0 0 0 0
0 0 0 0 0 0 1 2 3 6 9 12 15 19 20 19 16 16 15 14 13 10 7 6 5 3 1 0 0 0 0 0 0 0 0 0 0 0 0 0 0 0 0 0 0 0 0 0 0
0 0 0 0 0 0 1 3 3 4 6 9 12 16 19 19 18 18 18 17 15 11 6 5 4 3 2 1 1 1 1 1 1 0 0 0 0 0 0 0 0 0 0 0 0 0 0 0 0
0 0 0 0 0 1 2 3 3 3 4 6 9 13 17 19 21 22 22 21 18 13 9 7 7 7 6 5 4 3 2 2 2 1 0 0 0 0 0 0 0 0 0 0 0 0 0 0 0
0 0 0 0 0 1 2 2 2 2 3 5 8 12 18 22 25 26 24 22 20 17 14 11 10 11 10 7 6 3 2 2 2 1 0 0 0 0 0 0 0 0 0 0 0 0 0 0 0
0 0 0 0 0 0 1 1 1 2 3 4 7 14 20 24 27 27 25 22 19 18 16 13 10 9 8 6 5 3 2 1 1 0 0 0 0 0 0 0 0 0 0 0 0 0 0 0 0
0 0 0 0 0 0 0 0 1 2 3 4 8 14 20 23 25 26 25 21 17 16 15 11 7 5 5 4 4 3 3 2 1 0 0 0 0 0 0 0 0 0 0 0 0 0 0 0 0
0 0 0 0 0 0 0 0 1 2 3 5 7 12 17 21 23 25 23 19 15 13 13 10 6 3 3 3 3 3 3 2 1 0 0 0 0 0 0 0 0 0 0 0 0 0 0 0 0
0 0 0 0 0 0 0 0 0 1 2 5 8 9 12 18 23 24 21 18 13 10 10 8 4 2 1 1 2 3 2 1 0 0 0 0 0 1 0 0 0 0 0 0 0 0 0 0 0
0 0 0 0 0 0 0 0 0 0 1 5 8 9 9 15 20 22 20 16 12 8 7 5 2 1 0 1 2 3 2 1 1 0 0 0 0 0 0 0 0 0 0 0 0 0 0 0 0
0 0 0 0 0 0 0 0 1 1 2 5 9 9 9 12 16 18 18 15 10 6 5 4 2 0 0 0 1 1 2 2 2 1 1 1 1 1 0 0 0 0 0 0 0 0 0 0 0
0 0 0 0 0 0 0 0 0 1 2 5 8 10 10 12 12 12 13 10 6 4 4 4 3 1 0 0 0 0 1 3 3 3 2 2 2 2 1 1 1 1 1 1 1 1 0 0 0
0 0 0 0 0 0 0 0 0 1 3 5 7 9 11 12 10 8 8 6 4 2 2 2 1 0 0 0 0 0 1 2 2 3 3 3 3 3 3 2 2 2 2 2 2 2 1 1 0
0 0 0 0 0 0 0 0 0 1 3 5 6 7 9 9 8 6 6 5 4 3 3 2 1 0 0 1 1 0 0 1 1 1 2 3 3 3 3 3 3 3 3 2 3 3 3 2 1
0 0 0 0 0 0 0 0 1 2 4 5 5 5 6 7 7 5 5 6 6 5 4 2 1 0 1 2 2 1 0 0 0 0 1 3 3 3 3 2 3 3 3 3 3 3 3 3 3
Wind_Speed
2 3 2 2 6 7 4 4 2 3 3 3 6 6 7 4 2 4 3 7 9 7 6 9 12 13 13 13 13 13 13 14 13 13 13 13 13 13 13 13 13 13 13 13 13 13 13 13 14
2 3 2 5 7 4 3 3 4 3 4 4 6 6 6 5 5 7 5 7 9 8 5 7 12 12 13 12 13 13 13 13 13 12 12 12 12 12 13 13 13 13 13 13 13 13 13 13 13
3 1 4 6 5 3 2 0 4 4 3 3 4 5 5 4 6 5 6 10 9 7 5 8 13 13 12 12 12 12 12 12 12 11 11 11 12 12 12 12 12 13 13 13 13 13 12 13 13
2 4 6 7 4 0 3 3 4 5 4 5 4 5 4 4 5 6 11 11 9 6 5 7 13 13 12 12 11 11 11 11 11 11 11 11 11 12 12 12 12 12 12 12 12 12 13 12 12
3 5 8 5 3 2 1 3 2 3 3 4 4 5 4 4 9 12 11 10 9 6 5 6 12 12 12 11 11 11 10 10 10 10 10 10 11 11 11 11 11 11 11 11 12 11 11 11 11
5 6 6 2 2 2 1 1 3 5 4 4 4 5 3 4 9 10 9 8 7 7 5 6 12 12 11 11 11 10 10 10 10 10 10 10 10 10 10 10 10 10 10 10 10 10 10 10 10
6 5 4 2 1 0 2 2 3 4 4 3 4 5 3 4 6 9 8 8 6 5 5 4 5 7 10 10 10 10 9 9 9 9 9 9 9 9 9 9 10 10 10 9 10 10 10 10 10
5 6 3 1 2 1 2 2 2 4 4 5 5 7 5 6 8 9 8 7 6 5 4 4 4 4 4 5 9 9 9 9 9 9 9 9 9 8 9 8 9 10 9 9 9 10 9 9 10
4 6 1 2 4 2 3 3 2 3 5 3 3 4 7 14 13 10 8 6 5 5 3 4 4 3 3 3 6 7 8 8 7 6 8 7 4 4 4 6 8 8 8 8 8 9 9 9 8
5 3 3 4 4 4 4 4 5 4 3 3 5 7 14 14 12 11 10 10 8 7 5 4 4 4 3 3 3 2 2 3 4 3 4 3 3 2 3 4 6 7 7 7 7 7 8 6 3
3 3 3 2 2 4 4 3 4 7 3 6 9 14 16 14 11 10 9 9 8 7 6 5 4 4 3 2 3 2 2 2 3 4 4 3 3 2 3 2 2 3 4 3 4 5 3 3 3
2 2 2 1 2 4 5 5 4 4 4 6 12 16 16 14 12 11 10 8 7 6 6 6 5 4 3 2 2 2 2 2 2 2 3 2 2 2 2 1 1 2 1 2 2 2 2 3 3
1 2 2 0 2 3 5 3 3 1 4 10 13 13 13 12 9 7 6 7 6 7 7 6 6 5 4 3 2 3 2 2 2 1 2 2 2 2 1 1 1 1 1 1 1 2 2 2 2
1 2 3 1 2 2 5 2 3 2 8 11 12 11 10 10 9 7 7 7 8 7 6 5 5 5 4 3 3 2 2 2 2 2 2 3 2 2 2 1 1 1 1 1 1 1 1 1 1
1 3 5 3 3 2 5 2 1 3 9 10 10 9 8 7 7 8 9 8 8 7 6 6 6 5 5 4 4 3 3 3 2 2 3 3 3 3 2 2 1 1 1 1 1 1 1 1 1
4 5 4 4 2 2 5 2 2 5 9 8 7 7 6 5 6 6 6 6 6 6 6 7 7 6 6 5 4 3 3 3 3 2 2 4 4 4 3 2 2 1 2 2 2 1 1 1 1
6 3 2 5 2 2 3 2 1 4 7 6 6 5 5 4 4 4 5 7 7 7 7 6 5 6 6 5 4 3 2 3 3 2 2 3 4 4 3 3 2 2 2 2 2 1 1 1 1
1 2 2 3 3 2 2 1 0 4 5 5 4 4 4 4 5 5 5 5 5 5 5 5 5 5 5 4 3 2 1 2 2 2 3 4 4 4 4 3 3 3 2 2 2 2 1 1 1
2 1 2 3 2 3 2 1 1 3 3 4 4 4 4 4 3 4 5 5 5 4 5 5 5 4 3 3 3 3 2 2 2 3 4 4 4 4 4 3 3 3 3 3 3 2 2 1 1
2 0 1 2 3 3 3 3 2 1 3 4 5 5 5 4 3 3 4 5 5 5 5 4 5 5 4 3 2 2 2 2 2 2 2 3 4 4 4 4 3 3 3 3 3 3 2 1 2
1 3 3 1 3 5 4 4 3 2 0 1 3 3 4 5 5 5 5 5 5 5 5 5 5 5 5 4 3 2 2 1 1 1 1 3 4 5 4 4 4 4 4 4 4 4 4 3 2
2 3 3 3 4 2 2 1 5 3 2 2 2 3 4 4 4 5 5 5 5 5 4 4 5 5 4 5 4 4 3 2 3 2 2 2 3 4 4 5 5 5 4 4 5 5 4 4 3
3 2 4 4 4 3 4 2 7 2 3 4 4 4 3 3 4 4 5 5 4 4 4 4 4 4 4 4 5 4 3 2 2 1 2 2 2 3 4 5 4 4 4 5 5 4 5 4 4
4 7 7 6 6 3 2 0 6 4 5 4 3 4 5 5 4 4 3 3 3 4 4 4 4 4 4 4 4 4 4 3 3 2 2 2 1 2 3 3 4 4 4 5 5 5 5 4 4
5 7 6 6 5 3 3 1 8 6 5 5 4 4 5 6 5 4 4 4 4 4 4 4 4 4 4 4 4 3 4 4 4 3 3 2 2 2 3 3 3 3 3 4 4 4 4 5 5
4 9 8 4 3 4 3 3 7 5 3 2 2 4 5 5 4 5 5 5 4 4 4 4 4 4 4 4 3 3 3 2 2 3 3 3 2 2 2 3 3 2 2 3 3 3 3 3 4
6 3 6 8 3 1 4 6 7 2 2 1 2 4 4 5 5 4 4 4 4 4 4 4 4 4 4 4 3 2 2 2 2 2 2 2 2 2 2 2 2 2 2 2 2 2 2 2 2
5 9 6 7 5 1 4 4 5 4 3 2 2 4 4 4 4 4 4 4 4 3 3 3 3 4 3 4 3 2 2 2 2 2 2 2 2 1 2 2 1 1 1 1 2 2 1 2 1
5 5 7 5 6 7 2 7 6 7 5 5 5 4 4 5 5 4 3 3 3 2 3 3 3 3 3 3 3 2 2 1 2 2 2 2 1 2 2 2 2 1 1 1 2 2 2 2 1
4 7 8 6 4 4 4 8 4 4 4 4 4 3 4 4 4 3 3 2 2 2 3 3 3 3 3 3 3 2 2 1 1 1 1 2 2 2 2 2 2 2 2 2 2 2 2 2 1
Wind_Direction
198 141 140 87 56 49 30 357 32 62 59 65 87 86 94 75 104 132 119 131 128 129 131 131 127 122 117 112 109 107 106 106 107 107 107 108 108 107 107 107 107 107 105 104 103 104 104 105 106
154 151 98 60 73 61 5 352 62 69 126 117 85 78 76 70 73 102 122 133 129 129 125 131 130 126 121 117 114 112 111 110 110 110 109 109 109 109 108 107 106 106 104 104 104 103 104 106 105
165 144 77 65 73 122 142 143 110 94 87 72 77 68 80 106 120 127 141 134 123 123 125 140 133 129 125 121 118 115 114 114 113 112 112 110 109 108 107 107 107 106 106 106 105 103 104 107 108
114 53 53 65 57 338 169 169 134 108 63 54 86 72 67 95 131 133 134 133 126 123 128 142 135 132 129 126 122 119 118 117 116 115 114 112 110 110 109 108 107 106 107 106 105 105 104 104 107
66 70 58 48 21 15 114 166 131 98 79 68 84 86 57 42 106 124 132 134 133 130 131 141 138 137 135 132 129 126 124 121 118 116 115 114 113 113 111 110 110 107 106 106 106 106 105 104 106
58 63 72 52 8 17 75 116 100 90 94 90 86 88 59 102 120 131 132 131 133 135 132 138 143 141 139 136 133 131 128 125 122 118 117 117 116 114 114 114 113 111 109 108 109 107 105 105 109
91 82 101 121 89 2 161 114 119 121 116 118 109 95 87 120 126 127 122 121 122 125 122 122 131 141 143 141 139 137 133 131 128 124 122 120 118 116 115 115 114 112 110 109 108 107 105 104 111
110 95 78 88 157 214 150 118 123 127 118 118 114 134 165 160 130 118 112 110 113 114 115 115 111 113 123 138 144 143 141 137 133 132 129 125 122 118 115 111 115 113 111 108 108 108 104 105 111
81 74 106 197 184 193 153 138 138 99 112 109 108 143 148 136 131 126 124 122 136 143 131 127 121 117 119 134 151 146 145 140 132 131 127 107 79 84 100 117 118 116 112 109 107 106 104 102 105
74 101 221 211 190 170 161 153 153 118 113 97 78 97 125 137 144 149 156 161 167 170 167 151 144 142 140 150 118 98 96 99 94 89 96 89 84 82 94 106 114 111 106 103 99 98 93 88 82
91 172 233 242 183 146 146 147 138 132 179 190 160 146 145 150 156 163 170 172 175 173 173 166 164 159 151 129 123 103 91 90 93 99 103 100 87 71 68 58 66 68 78 67 73 76 77 86 93
79 275 222 240 130 132 148 144 134 175 211 165 151 151 153 162 171 176 176 175 168 173 182 172 169 165 161 142 133 126 120 113 112 116 123 115 106 98 93 83 72 62 64 76 74 82 83 87 105
71 299 303 222 117 128 116 121 136 165 110 121 133 147 161 170 175 175 170 165 169 183 185 178 173 172 163 148 150 148 145 140 139 145 153 149 144 147 136 126 115 104 94 93 91 89 85 90 98
307 317 322 346 104 121 117 96 98 144 125 129 143 159 171 175 174 168 168 174 181 188 186 177 178 175 167 164 161 162 159 157 158 176 181 172 164 166 166 173 177 171 151 126 121 121 108 97 105
28 20 10 27 71 115 107 48 249 145 133 141 155 165 171 174 174 182 182 182 184 184 180 177 185 179 179 176 178 173 169 164 174 185 188 185 178 177 175 187 205 207 166 146 123 107 104 116 117
41 44 12 322 56 116 118 223 254 142 145 156 163 168 170 173 183 188 180 178 177 174 177 184 190 179 182 183 179 170 170 171 184 186 188 195 189 182 180 197 216 198 155 149 149 139 120 112 126
28 27 338 320 5 91 120 216 228 145 150 160 167 172 169 170 179 182 179 179 177 175 176 180 182 174 181 179 166 167 166 178 182 181 191 197 196 189 183 199 208 179 160 164 176 152 150 159 174
319 338 324 308 325 65 95 257 126 147 151 162 165 165 165 182 198 180 169 169 165 166 171 175 174 172 166 155 142 138 164 178 174 187 197 195 197 189 181 192 197 175 164 172 172 158 147 156 173
163 196 294 291 327 69 78 28 352 152 154 166 179 177 177 195 179 153 154 150 146 149 157 165 165 161 152 153 162 163 187 184 186 203 200 194 194 187 181 190 183 177 182 191 180 159 156 164 134
157 97 320 337 15 70 65 23 10 157 193 193 194 194 185 176 153 156 149 150 156 159 160 164 168 164 168 175 166 160 161 180 187 195 194 191 186 186 193 191 190 187 182 187 183 167 155 175 161
209 187 205 181 31 40 60 0 343 333 259 179 192 187 181 182 178 174 168 167 163 169 173 178 176 172 173 162 136 118 103 86 108 185 207 206 194 195 197 193 192 192 188 198 199 184 177 184 192
258 234 179 132 88 5 50 304 300 305 316 256 222 191 188 182 171 173 174 174 179 185 175 174 176 175 175 164 163 163 171 184 197 202 213 212 201 197 199 200 198 199 198 203 208 197 189 175 191
202 68 93 89 103 50 21 89 292 324 286 267 238 201 184 175 169 175 180 181 179 173 170 172 169 175 175 170 171 169 177 193 189 191 200 214 207 203 204 201 198 204 206 209 209 199 195 189 189
123 71 55 49 64 43 327 102 284 257 238 257 230 190 173 170 169 169 164 157 162 162 168 166 168 179 176 174 173 175 184 192 181 188 200 214 216 215 215 205 202 208 211 213 210 205 201 200 198
85 82 36 13 21 269 298 238 256 266 246 229 214 187 175 171 164 164 164 172 179 175 175 170 174 183 180 181 186 188 193 192 196 194 199 199 206 215 218 204 202 209 216 214 202 200 208 202 200
151 131 149 174 204 278 331 260 265 280 281 249 180 157 163 166 167 175 182 182 184 183 175 173 180 186 179 182 187 184 187 191 195 194 189 195 212 222 211 199 204 210 213 212 192 195 209 199 200
128 128 147 122 130 24 303 299 306 333 1 35 113 140 167 172 179 181 176 172 178 181 182 183 182 176 175 175 171 175 182 186 191 189 186 200 214 211 193 188 190 198 200 197 180 180 200 180 190
127 138 103 108 130 210 305 291 259 269 254 235 191 184 179 167 176 177 176 175 179 180 175 169 168 173 169 164 174 179 179 182 185 179 189 199 201 185 161 163 166 170 168 161 152 150 157 149 161
109 92 98 100 137 144 216 270 234 220 217 209 216 203 181 172 177 177 182 177 166 162 160 158 158 156 160 159 160 154 161 167 167 175 192 181 161 147 149 151 146 136 123 124 132 134 130 139 137
150 155 143 141 178 155 164 264 282 220 207 196 211 201 179 171 174 163 150 142 151 167 170 167 163 165 167 152 143 146 146 131 131 154 165 147 133 129 131 124 119 113 111 118 132 140 136 146 152